Date String (YYYY-MM-DD hh:mm:ss) UTC,Instrument flags,Ambient pressure (hPa),Sample flow (lpm),Bypass flow (lpm),Sample temperature (°C),Ambient temperature (°C),ASC tube jacket temperature (°C),LED temperature (°C),Box temperature (°C),Sample RH (%),Span deviation,Mass concentration (μg/m³),Mass concentration (μg/m³),Mass concentration (μg/m³)
DateTimeUTC,F1_M11,P_M11,Q1_M11,Q2_M11,T1_M11,T2_M11,T3_M11,T4_M11,T5_M11,U1_M11,ZSPAN_M11,X0_M11,X2_M11,X1_M11
2022-07-22 13:00:00,,0828.3,4.99,0.00,29.7,28.1,00.0,38.5,31.6,15.1,0000.0,0017.53,0007.28,0005.80
2022-07-22 13:01:00,,0828.3,5.00,0.00,29.7,28.3,00.0,38.5,31.6,15.2,0000.0,0018.02,0007.29,0005.81
2022-07-22 13:02:00,,0828.3,5.01,0.00,29.8,28.4,00.0,38.5,31.6,15.0,0000.0,0017.78,0007.17,0005.82
2022-07-22 13:03:00,,0828.3,4.99,0.00,29.8,28.5,00.0,38.6,31.7,15.1,0000.0,0017.41,0007.08,0005.82
2022-07-22 13:04:00,,0828.3,5.01,0.00,29.8,28.6,00.0,38.6,31.7,15.4,0000.0,0016.77,0007.04,0005.82
2022-07-22 13:05:00,,0828.3,5.00,0.00,29.8,28.6,00.0,38.6,31.7,15.4,0000.0,0015.53,0006.98,0005.82
2022-07-22 13:06:00,,0828.3,4.99,0.00,29.8,28.7,00.0,38.6,31.7,15.2,0000.0,0015.90,0006.98,0005.82
2022-07-22 13:07:00,,0828.3,5.01,0.00,29.9,28.8,00.0,38.6,31.8,15.1,0000.0,0017.10,0006.99,0005.81
2022-07-22 13:08:00,,0828.4,4.99,0.00,29.9,28.8,00.0,38.6,31.9,15.0,0000.0,0017.13,0007.02,0005.82
2022-07-22 13:09:00,,0828.3,5.00,0.00,29.9,28.9,00.0,38.7,31.9,15.1,0000.0,0016.35,0006.97,0005.82
2022-07-22 13:10:00,,0828.4,5.01,0.00,30.0,28.9,00.0,38.7,31.9,15.0,0000.0,0016.81,0006.97,0005.83
2022-07-22 13:11:00,,0828.4,5.00,0.00,30.0,29.0,00.0,38.7,32.0,15.0,0000.0,0017.14,0006.96,0005.83
2022-07-22 13:12:00,,0828.4,5.01,0.00,30.0,28.5,00.0,38.6,31.9,14.9,0000.0,0017.19,0006.96,0005.82
2022-07-22 13:13:00,,0828.3,5.00,0.00,30.0,27.6,00.0,38.6,31.8,14.8,0000.0,0016.58,0006.99,0005.83
2022-07-22 13:14:00,,0828.4,5.00,0.00,29.9,27.4,00.0,38.5,31.7,14.6,0000.0,0016.47,0007.01,0005.83
2022-07-22 13:15:00,,0828.4,4.99,0.00,29.9,27.4,00.0,38.6,31.6,14.7,0000.0,0016.39,0006.99,0005.83
2022-07-22 13:16:00,,0828.4,5.01,0.00,29.8,27.5,00.0,38.6,31.5,15.2,0000.0,0016.28,0007.04,0005.83
2022-07-22 13:17:00,,0828.4,4.99,0.00,29.8,27.6,00.0,38.5,31.5,15.5,0000.0,0016.26,0007.00,0005.82
2022-07-22 13:18:00,,0828.4,5.00,0.00,29.7,27.8,00.0,38.5,31.5,15.6,0000.0,0016.57,0007.00,0005.84
2022-07-22 13:19:00,,0828.5,5.00,0.00,29.7,27.9,00.0,38.5,31.6,15.8,0000.0,0016.62,0006.99,0005.83
2022-07-22 13:20:00,,0828.5,5.01,0.00,29.7,28.1,00.0,38.5,31.6,15.8,0000.0,0017.59,0007.06,0005.83
2022-07-22 13:21:00,,0828.5,4.99,0.00,29.8,28.2,00.0,38.5,31.6,15.4,0000.0,0017.60,0007.08,0005.84
2022-07-22 13:22:00,,0828.5,5.00,0.00,29.8,28.3,00.0,38.6,31.7,14.6,0000.0,0017.28,0007.10,0005.84
2022-07-22 13:23:00,,0828.5,5.01,0.00,29.8,28.4,00.0,38.6,31.7,14.5,0000.0,0016.73,0007.11,0005.86
2022-07-22 13:24:00,,0828.5,4.99,0.00,29.8,28.5,00.0,38.6,31.7,14.6,0000.0,0016.36,0007.08,0005.88
2022-07-22 13:25:00,,0828.5,5.01,0.00,29.8,28.6,00.0,38.6,31.7,14.6,0000.0,0015.88,0007.03,0005.87
2022-07-22 13:26:00,,0828.5,5.00,0.00,29.9,28.7,00.0,38.6,31.8,14.3,0000.0,0015.80,0007.02,0005.88
2022-07-22 13:27:00,,0828.5,5.01,0.00,29.9,28.7,00.0,38.6,31.8,14.5,0000.0,0015.66,0006.99,0005.89
2022-07-22 13:28:00,,0828.4,4.99,0.00,29.9,28.8,00.0,38.6,31.9,14.7,0000.0,0014.77,0007.04,0005.91
2022-07-22 13:29:00,,0828.5,5.01,0.00,29.9,28.9,00.0,38.7,31.9,14.8,0000.0,0012.84,0007.03,0005.91
2022-07-22 13:30:00,,0828.6,5.00,0.00,30.0,28.9,00.0,38.7,31.9,14.4,0000.0,0012.61,0007.01,0005.94
2022-07-22 13:31:00,,0828.6,5.00,0.00,30.0,28.7,00.0,38.7,32.0,14.2,0000.0,0011.36,0006.89,0005.95
2022-07-22 13:32:00,,0828.7,4.99,0.00,30.0,27.9,00.0,38.6,31.8,14.3,0000.0,0010.83,0006.85,0005.95
2022-07-22 13:33:00,,0828.8,5.01,0.00,29.9,27.5,00.0,38.6,31.7,14.4,0000.0,0010.89,0006.84,0005.95
2022-07-22 13:34:00,,0828.8,4.99,0.00,29.9,27.6,00.0,38.6,31.6,14.3,0000.0,0010.86,0006.80,0005.93
2022-07-22 13:35:00,,0829.1,5.01,0.00,29.8,27.6,00.0,38.6,31.6,14.7,0000.0,0011.47,0006.78,0005.90
2022-07-22 13:36:00,,0829.0,5.00,0.00,29.8,27.8,00.0,38.6,31.6,14.5,0000.0,0012.00,0006.76,0005.90
2022-07-22 13:37:00,,0829.0,5.00,0.00,29.8,27.9,00.0,38.6,31.6,14.4,0000.0,0012.56,0006.76,0005.89
2022-07-22 13:38:00,,0829.0,5.00,0.00,29.8,28.0,00.0,38.6,31.6,14.4,0000.0,0014.77,0006.71,0005.88
2022-07-22 13:39:00,,0829.0,4.99,0.00,29.8,28.2,00.0,38.6,31.6,15.0,0000.0,0014.78,0006.64,0005.86
2022-07-22 13:40:00,,0829.0,4.99,0.00,29.8,28.3,00.0,38.6,31.7,15.1,0000.0,0015.22,0006.65,0005.85
2022-07-22 13:41:00,,0828.9,5.01,0.00,29.8,28.4,00.0,38.6,31.7,15.1,0000.0,0016.16,0006.64,0005.83
2022-07-22 13:42:00,,0829.1,5.00,0.00,29.8,28.5,00.0,38.6,31.7,15.2,0000.0,0016.32,0006.64,0005.82
2022-07-22 13:43:00,,0829.1,5.01,0.00,29.8,28.6,00.0,38.6,31.8,15.3,0000.0,0016.31,0006.63,0005.81
2022-07-22 13:44:00,,0828.7,4.98,0.00,29.9,28.7,00.0,38.6,31.8,16.2,0000.0,0016.48,0006.61,0005.81
2022-07-22 13:45:00,,0828.9,5.00,0.00,29.9,28.8,00.0,38.6,31.9,15.9,0000.0,0016.67,0006.62,0005.82
2022-07-22 13:46:00,,0829.1,5.01,0.00,29.9,28.8,00.0,38.6,31.9,16.3,0000.0,0016.34,0006.63,0005.84
2022-07-22 13:47:00,,0828.9,5.01,0.00,29.9,28.9,00.0,38.7,31.9,15.6,0000.0,0015.84,0006.64,0005.84
2022-07-22 13:48:00,,0828.9,4.99,0.00,30.0,28.9,00.0,38.7,31.9,15.8,0000.0,0015.68,0006.66,0005.85
2022-07-22 13:49:00,,0829.0,5.01,0.00,30.0,28.4,00.0,38.6,31.9,15.3,0000.0,0014.00,0006.68,0005.86
2022-07-22 13:50:00,,0829.0,5.00,0.00,30.0,27.7,00.0,38.6,31.8,14.9,0000.0,0013.73,0006.73,0005.86
2022-07-22 13:51:00,,0828.9,5.00,0.00,29.9,27.6,00.0,38.5,31.7,14.9,0000.0,0013.71,0006.79,0005.86
2022-07-22 13:52:00,,0829.0,5.00,0.00,29.9,27.6,00.0,38.6,31.7,14.6,0000.0,0012.86,0006.82,0005.87
2022-07-22 13:53:00,,0828.9,5.00,0.00,29.8,27.7,00.0,38.6,31.6,14.6,0000.0,0012.92,0006.83,0005.88
2022-07-22 13:54:00,,0828.9,5.00,0.00,29.8,27.9,00.0,38.6,31.6,14.7,0000.0,0013.63,0006.83,0005.88
2022-07-22 13:55:00,,0828.8,5.00,0.00,29.8,28.0,00.0,38.6,31.6,14.4,0000.0,0013.65,0006.84,0005.88
2022-07-22 13:56:00,,0828.7,5.01,0.00,29.8,28.2,00.0,38.6,31.6,15.1,0000.0,0013.46,0006.83,0005.88
2022-07-22 13:57:00,,0829.0,4.99,0.00,29.8,28.3,00.0,38.6,31.7,14.7,0000.0,0013.63,0006.87,0005.89
2022-07-22 13:58:00,,0829.2,5.00,0.00,29.8,28.4,00.0,38.6,31.7,14.6,0000.0,0014.04,0006.92,0005.90
2022-07-22 13:59:00,,0829.1,5.00,0.00,29.8,28.5,00.0,38.6,31.7,14.9,0000.0,0013.81,0006.90,0005.90
